Time,TemperatureF,DewpointF,PressureIn,WindDirection,WindDirectionDegrees,WindSpeedMPH,WindSpeedGustMPH,Humidity,HourlyPrecipIn,Conditions,Clouds,dailyrainin,SolarRadiationWatts/m^2,SoftwareType,DateUTC
2013-01-19 00:00:00,46.9,39.0,30.25,SE,132,0.0,0.0,74,0.00,,,0.00,0,Wunderground v.1.15,2013-01-19 06:00:00,
2013-01-19 00:05:00,46.5,38.7,30.25,SE,132,0.0,0.0,74,0.00,,,0.00,0,Wunderground v.1.15,2013-01-19 06:05:00,
2013-01-19 00:10:00,46.2,38.4,30.25,SE,132,0.0,0.0,74,0.00,,,0.00,0,Wunderground v.1.15,2013-01-19 06:10:00,
2013-01-19 00:15:00,45.9,38.1,30.25,SE,132,0.0,0.0,74,0.00,,,0.00,0,Wunderground v.1.15,2013-01-19 06:15:00,
2013-01-19 00:20:00,45.6,38.1,30.25,SE,132,0.0,0.0,75,0.00,,,0.00,0,Wunderground v.1.15,2013-01-19 06:20:00,
2013-01-19 00:25:00,45.3,38.2,30.25,SE,132,0.0,0.0,76,0.00,,,0.00,0,Wunderground v.1.15,2013-01-19 06:25:00,
2013-01-19 00:30:00,45.0,37.9,30.25,SE,132,0.0,0.0,76,0.00,,,0.00,0,Wunderground v.1.15,2013-01-19 06:30:00,
2013-01-19 00:35:00,44.8,38.0,30.25,SE,132,0.0,0.0,77,0.00,,,0.00,0,Wunderground v.1.15,2013-01-19 06:35:00,
2013-01-19 00:40:00,44.6,37.8,30.25,SE,132,0.0,0.0,77,0.00,,,0.00,0,Wunderground v.1.15,2013-01-19 06:40:00,
2013-01-19 00:50:00,44.1,37.7,30.25,SE,132,0.0,0.0,78,0.00,,,0.00,0,Wunderground v.1.15,2013-01-19 06:50:00,
2013-01-19 00:55:00,43.8,37.4,30.25,SE,132,0.0,0.0,78,0.00,,,0.00,0,Wunderground v.1.15,2013-01-19 06:55:00,
2013-01-19 01:00:00,43.6,37.2,30.25,SE,132,0.0,0.0,78,0.00,,,0.00,0,Wunderground v.1.15,2013-01-19 07:00:00,
2013-01-19 01:05:00,43.4,37.0,30.25,SE,132,0.0,0.0,78,0.00,,,0.00,0,Wunderground v.1.15,2013-01-19 07:05:00,
2013-01-19 01:10:00,43.1,36.7,30.25,SE,132,0.0,0.0,78,0.00,,,0.00,0,Wunderground v.1.15,2013-01-19 07:10:00,
2013-01-19 01:20:00,42.7,36.6,30.25,SE,132,0.0,0.0,79,0.00,,,0.00,0,Wunderground v.1.15,2013-01-19 07:20:00,
2013-01-19 01:25:00,42.4,36.7,30.25,SE,132,0.0,0.0,80,0.00,,,0.00,0,Wunderground v.1.15,2013-01-19 07:25:00,
2013-01-19 01:30:00,42.2,36.5,30.24,SE,132,0.0,0.0,80,0.00,,,0.00,0,Wunderground v.1.15,2013-01-19 07:30:00,
2013-01-19 01:35:00,42.0,36.6,30.24,SE,132,0.0,0.0,81,0.00,,,0.00,0,Wunderground v.1.15,2013-01-19 07:35:00,
2013-01-19 01:40:00,41.8,36.4,30.24,SE,132,0.0,0.0,81,0.00,,,0.00,0,Wunderground v.1.15,2013-01-19 07:40:00,
2013-01-19 01:50:00,41.5,36.4,30.24,SE,132,0.0,0.0,82,0.00,,,0.00,0,Wunderground v.1.15,2013-01-19 07:50:00,
2013-01-19 01:55:00,41.3,36.5,30.24,SE,132,0.0,0.0,83,0.00,,,0.00,0,Wunderground v.1.15,2013-01-19 07:55:00,
2013-01-19 02:00:00,41.1,36.3,30.24,SE,132,0.0,0.0,83,0.00,,,0.00,0,Wunderground v.1.15,2013-01-19 08:00:00,
2013-01-19 02:05:00,41.0,36.5,30.24,SE,132,0.0,0.0,84,0.00,,,0.00,0,Wunderground v.1.15,2013-01-19 08:05:00,
2013-01-19 02:10:00,40.9,36.4,30.24,SE,132,0.0,0.0,84,0.00,,,0.00,0,Wunderground v.1.15,2013-01-19 08:10:00,
2013-01-19 02:20:00,40.6,36.4,30.24,SE,132,0.0,0.0,85,0.00,,,0.00,0,Wunderground v.1.15,2013-01-19 08:20:00,
2013-01-19 02:25:00,40.5,36.3,30.24,SE,132,0.0,0.0,85,0.00,,,0.00,0,Wunderground v.1.15,2013-01-19 08:25:00,
2013-01-19 02:30:00,40.5,36.3,30.24,SE,132,0.0,0.0,85,0.00,,,0.00,0,Wunderground v.1.15,2013-01-19 08:30:00,
2013-01-19 02:35:00,40.4,36.5,30.24,SE,132,0.0,0.0,86,0.00,,,0.00,0,Wunderground v.1.15,2013-01-19 08:35:00,
2013-01-19 02:45:00,40.3,36.4,30.24,SE,132,0.0,0.0,86,0.00,,,0.00,0,Wunderground v.1.15,2013-01-19 08:45:00,
2013-01-19 02:55:00,40.2,36.6,30.24,SE,132,0.0,0.0,87,0.00,,,0.00,0,Wunderground v.1.15,2013-01-19 08:55:00,
2013-01-19 03:05:00,40.0,36.4,30.23,SE,132,0.0,0.0,87,0.00,,,0.00,0,Wunderground v.1.15,2013-01-19 09:05:00,
2013-01-19 03:10:00,39.8,36.2,30.23,SE,132,0.0,0.0,87,0.00,,,0.00,0,Wunderground v.1.15,2013-01-19 09:10:00,
2013-01-19 03:15:00,39.7,36.1,30.23,SE,132,0.0,0.0,87,0.00,,,0.00,0,Wunderground v.1.15,2013-01-19 09:15:00,
2013-01-19 03:20:00,39.6,36.3,30.23,SE,132,0.0,0.0,88,0.00,,,0.00,0,Wunderground v.1.15,2013-01-19 09:20:00,
2013-01-19 03:25:00,39.6,36.3,30.23,SE,132,0.0,0.0,88,0.00,,,0.00,0,Wunderground v.1.15,2013-01-19 09:25:00,
2013-01-19 03:30:00,39.5,36.2,30.22,SE,132,0.0,0.0,88,0.00,,,0.00,0,Wunderground v.1.15,2013-01-19 09:30:00,
2013-01-19 03:35:00,39.4,36.1,30.22,SE,132,0.0,0.0,88,0.00,,,0.00,0,Wunderground v.1.15,2013-01-19 09:35:00,
2013-01-19 03:40:00,39.3,36.0,30.22,SE,132,0.0,0.0,88,0.00,,,0.00,0,Wunderground v.1.15,2013-01-19 09:40:00,
2013-01-19 03:45:00,39.3,36.3,30.22,SE,132,0.0,0.0,89,0.00,,,0.00,0,Wunderground v.1.15,2013-01-19 09:45:00,
2013-01-19 03:50:00,39.3,36.3,30.22,SE,132,0.0,0.0,89,0.00,,,0.00,0,Wunderground v.1.15,2013-01-19 09:50:00,
2013-01-19 03:55:00,39.4,36.4,30.22,SE,132,0.0,0.0,89,0.00,,,0.00,0,Wunderground v.1.15,2013-01-19 09:55:00,
2013-01-19 04:00:00,39.5,36.5,30.22,SE,132,0.0,0.0,89,0.00,,,0.00,0,Wunderground v.1.15,2013-01-19 10:00:00,
2013-01-19 04:05:00,39.5,36.8,30.22,SE,132,0.0,0.0,90,0.00,,,0.00,0,Wunderground v.1.15,2013-01-19 10:05:00,
2013-01-19 04:10:00,39.6,36.9,30.22,SE,132,0.0,0.0,90,0.00,,,0.00,0,Wunderground v.1.15,2013-01-19 10:10:00,
2013-01-19 04:15:00,39.6,36.9,30.22,SE,132,0.0,0.0,90,0.00,,,0.00,0,Wunderground v.1.15,2013-01-19 10:15:00,
2013-01-19 04:20:00,39.6,36.9,30.22,SE,132,0.0,0.0,90,0.00,,,0.00,0,Wunderground v.1.15,2013-01-19 10:20:00,
2013-01-19 04:30:00,39.6,36.9,30.21,SE,132,0.0,0.0,90,0.00,,,0.00,0,Wunderground v.1.15,2013-01-19 10:30:00,
2013-01-19 04:35:00,39.5,36.8,30.21,SE,132,0.0,0.0,90,0.00,,,0.00,0,Wunderground v.1.15,2013-01-19 10:35:00,
2013-01-19 04:40:00,39.4,37.0,30.21,SE,132,0.0,0.0,91,0.00,,,0.00,0,Wunderground v.1.15,2013-01-19 10:40:00,
2013-01-19 04:45:00,39.4,37.0,30.21,SE,132,0.0,0.0,91,0.00,,,0.00,0,Wunderground v.1.15,2013-01-19 10:45:00,
2013-01-19 04:50:00,39.3,36.9,30.21,SE,132,0.0,0.0,91,0.00,,,0.00,0,Wunderground v.1.15,2013-01-19 10:50:00,
2013-01-19 04:55:00,39.3,36.9,30.21,SE,132,0.0,0.0,91,0.00,,,0.00,0,Wunderground v.1.15,2013-01-19 10:55:00,
2013-01-19 05:00:00,39.3,36.9,30.20,SE,132,0.0,0.0,91,0.00,,,0.00,0,Wunderground v.1.15,2013-01-19 11:00:00,
2013-01-19 05:05:00,39.4,37.0,30.20,SE,132,0.0,0.0,91,0.00,,,0.00,0,Wunderground v.1.15,2013-01-19 11:05:00,
2013-01-19 05:10:00,39.5,37.1,30.20,SE,132,0.0,0.0,91,0.00,,,0.00,0,Wunderground v.1.15,2013-01-19 11:10:00,
2013-01-19 06:50:00,39.5,37.6,30.20,SE,132,0.0,0.0,93,0.00,,,0.00,0,Wunderground v.1.15,2013-01-19 12:50:00,
2013-01-19 06:55:00,39.3,37.4,30.20,SE,132,0.0,0.0,93,0.00,,,0.00,0,Wunderground v.1.15,2013-01-19 12:55:00,
2013-01-19 07:00:00,39.2,37.3,30.21,SE,132,0.0,0.0,93,0.00,,,0.00,0,Wunderground v.1.15,2013-01-19 13:00:00,
2013-01-19 07:05:00,39.1,37.2,30.21,SE,132,0.0,0.0,93,0.00,,,0.00,0,Wunderground v.1.15,2013-01-19 13:05:00,
2013-01-19 07:10:00,39.0,37.1,30.21,SE,132,0.0,0.0,93,0.00,,,0.00,0,Wunderground v.1.15,2013-01-19 13:10:00,
2013-01-19 07:15:00,38.8,36.9,30.21,SE,132,0.0,0.0,93,0.00,,,0.00,0,Wunderground v.1.15,2013-01-19 13:15:00,
2013-01-19 07:20:00,38.7,36.9,30.21,SE,132,1.0,2.0,93,0.00,,,0.00,0,Wunderground v.1.15,2013-01-19 13:20:00,
2013-01-19 07:25:00,38.7,36.9,30.21,SE,132,1.0,4.0,93,0.00,,,0.00,0,Wunderground v.1.15,2013-01-19 13:25:00,
2013-01-19 07:30:00,38.8,36.9,30.22,SE,132,2.0,2.0,93,0.00,,,0.00,0,Wunderground v.1.15,2013-01-19 13:30:00,
2013-01-19 07:35:00,39.0,37.1,30.22,SE,132,2.0,2.0,93,0.00,,,0.00,9,Wunderground v.1.15,2013-01-19 13:35:00,
2013-01-19 07:40:00,39.1,37.2,30.22,SE,132,2.0,2.0,93,0.00,,,0.00,16,Wunderground v.1.15,2013-01-19 13:40:00,
2013-01-19 07:45:00,39.1,37.2,30.22,SE,132,1.0,2.0,93,0.00,,,0.00,21,Wunderground v.1.15,2013-01-19 13:45:00,
2013-01-19 07:50:00,39.1,37.2,30.22,SE,132,1.0,1.0,93,0.00,,,0.00,26,Wunderground v.1.15,2013-01-19 13:50:00,
2013-01-19 07:55:00,39.2,37.3,30.22,SE,132,0.0,1.0,93,0.00,,,0.00,35,Wunderground v.1.15,2013-01-19 13:55:00,
2013-01-19 08:00:00,39.3,37.4,30.23,SE,132,0.0,0.0,93,0.00,,,0.00,62,Wunderground v.1.15,2013-01-19 14:00:00,
2013-01-19 08:05:00,39.9,38.3,30.23,SE,132,0.0,0.0,94,0.00,,,0.00,70,Wunderground v.1.15,2013-01-19 14:05:00,
2013-01-19 08:10:00,40.6,39.0,30.23,SE,132,0.0,0.0,94,0.00,,,0.00,86,Wunderground v.1.15,2013-01-19 14:10:00,
2013-01-19 08:15:00,41.3,40.0,30.23,SE,132,0.0,0.0,95,0.00,,,0.00,91,Wunderground v.1.15,2013-01-19 14:15:00,
2013-01-19 08:20:00,42.0,40.7,30.23,SE,132,0.0,0.0,95,0.00,,,0.00,104,Wunderground v.1.15,2013-01-19 14:20:00,
2013-01-19 08:30:00,43.4,41.8,30.24,SE,132,2.0,3.0,94,0.00,,,0.00,88,Wunderground v.1.15,2013-01-19 14:30:00,
2013-01-19 08:35:00,44.3,42.7,30.24,SE,132,2.0,3.0,94,0.00,,,0.00,104,Wunderground v.1.15,2013-01-19 14:35:00,
2013-01-19 08:40:00,45.0,43.1,30.24,SE,131,2.0,2.0,93,0.00,,,0.00,148,Wunderground v.1.15,2013-01-19 14:40:00,
2013-01-19 08:45:00,45.8,43.9,30.24,SE,132,3.0,3.0,93,0.00,,,0.00,169,Wunderground v.1.15,2013-01-19 14:45:00,
2013-01-19 08:50:00,46.8,44.6,30.24,SE,132,2.0,4.0,92,0.00,,,0.00,241,Wunderground v.1.15,2013-01-19 14:50:00,
2013-01-19 08:55:00,47.4,44.9,30.24,SE,132,2.0,4.0,91,0.00,,,0.00,206,Wunderground v.1.15,2013-01-19 14:55:00,
2013-01-19 09:00:00,48.0,45.2,30.24,SE,132,3.0,3.0,90,0.00,,,0.00,272,Wunderground v.1.15,2013-01-19 15:00:00,
2013-01-19 09:10:00,49.7,46.3,30.24,SE,131,1.0,1.0,88,0.00,,,0.00,278,Wunderground v.1.15,2013-01-19 15:10:00,
2013-01-19 09:15:00,49.9,45.9,30.25,SE,131,0.0,1.0,86,0.00,,,0.00,211,Wunderground v.1.15,2013-01-19 15:15:00,
2013-01-19 09:20:00,50.0,46.9,30.25,SE,132,0.0,0.0,89,0.00,,,0.00,229,Wunderground v.1.15,2013-01-19 15:20:00,
2013-01-19 09:25:00,50.7,47.0,30.25,SE,132,0.0,5.0,87,0.00,,,0.00,309,Wunderground v.1.15,2013-01-19 15:25:00,
2013-01-19 09:30:00,51.2,47.2,30.25,SE,132,1.0,4.0,86,0.00,,,0.00,383,Wunderground v.1.15,2013-01-19 15:30:00,
2013-01-19 09:35:00,51.9,47.2,30.25,SE,132,3.0,4.0,84,0.00,,,0.00,341,Wunderground v.1.15,2013-01-19 15:35:00,
2013-01-19 09:45:00,52.7,47.7,30.25,SE,138,4.0,5.0,83,0.00,,,0.00,371,Wunderground v.1.15,2013-01-19 15:45:00,
2013-01-19 09:50:00,53.4,48.4,30.25,SE,138,4.0,4.0,83,0.00,,,0.00,353,Wunderground v.1.15,2013-01-19 15:50:00,
2013-01-19 09:55:00,54.1,48.1,30.25,SE,139,4.0,4.0,80,0.00,,,0.00,401,Wunderground v.1.15,2013-01-19 15:55:00,
2013-01-19 10:00:00,54.3,48.6,30.26,SE,140,4.0,6.0,81,0.00,,,0.00,390,Wunderground v.1.15,2013-01-19 16:00:00,
2013-01-19 10:05:00,55.2,48.8,30.26,SSE,148,4.0,7.0,79,0.00,,,0.00,425,Wunderground v.1.15,2013-01-19 16:05:00,
2013-01-19 10:10:00,55.8,49.0,30.26,SSE,166,6.0,6.0,78,0.00,,,0.00,468,Wunderground v.1.15,2013-01-19 16:10:00,
2013-01-19 10:15:00,56.1,49.0,30.25,South,177,7.0,7.0,77,0.00,,,0.00,417,Wunderground v.1.15,2013-01-19 16:15:00,
2013-01-19 10:20:00,56.6,49.1,30.25,South,188,7.0,7.0,76,0.00,,,0.00,480,Wunderground v.1.15,2013-01-19 16:20:00,
2013-01-19 10:25:00,57.3,49.4,30.25,South,182,7.0,7.0,75,0.00,,,0.00,445,Wunderground v.1.15,2013-01-19 16:25:00,
2013-01-19 10:30:00,57.6,49.4,30.25,South,180,6.0,7.0,74,0.00,,,0.00,403,Wunderground v.1.15,2013-01-19 16:30:00,
2013-01-19 10:35:00,58.1,49.5,30.25,South,181,6.0,7.0,73,0.00,,,0.00,450,Wunderground v.1.15,2013-01-19 16:35:00,
2013-01-19 10:40:00,58.3,49.7,30.25,South,182,6.0,9.0,73,0.00,,,0.00,492,Wunderground v.1.15,2013-01-19 16:40:00,
2013-01-19 10:45:00,58.6,49.2,30.25,South,191,7.0,9.0,71,0.00,,,0.00,476,Wunderground v.1.15,2013-01-19 16:45:00,
2013-01-19 10:50:00,59.0,49.2,30.25,South,176,8.0,8.0,70,0.00,,,0.00,455,Wunderground v.1.15,2013-01-19 16:50:00,
2013-01-19 10:55:00,59.1,48.9,30.25,SSW,194,8.0,8.0,69,0.00,,,0.00,446,Wunderground v.1.15,2013-01-19 16:55:00,
2013-01-19 11:00:00,59.6,49.4,30.24,South,190,9.0,9.0,69,0.00,,,0.00,410,Wunderground v.1.15,2013-01-19 17:00:00,
2013-01-19 11:05:00,60.3,49.3,30.24,South,179,9.0,10.0,67,0.00,,,0.00,473,Wunderground v.1.15,2013-01-19 17:05:00,
2013-01-19 11:10:00,60.2,49.2,30.24,South,182,9.0,9.0,67,0.00,,,0.00,671,Wunderground v.1.15,2013-01-19 17:10:00,
2013-01-19 11:15:00,60.7,49.7,30.23,SSW,193,9.0,12.0,67,0.00,,,0.00,529,Wunderground v.1.15,2013-01-19 17:15:00,
2013-01-19 11:25:00,61.8,49.9,30.23,SW,214,9.0,10.0,65,0.00,,,0.00,628,Wunderground v.1.15,2013-01-19 17:25:00,
2013-01-19 11:30:00,62.2,49.9,30.22,South,180,9.0,11.0,64,0.00,,,0.00,564,Wunderground v.1.15,2013-01-19 17:30:00,
2013-01-19 11:35:00,62.9,50.5,30.22,South,184,10.0,16.0,64,0.00,,,0.00,589,Wunderground v.1.15,2013-01-19 17:35:00,
2013-01-19 11:40:00,63.1,49.9,30.22,SSW,194,11.0,11.0,62,0.00,,,0.00,659,Wunderground v.1.15,2013-01-19 17:40:00,
2013-01-19 11:45:00,63.5,50.2,30.21,SSW,209,11.0,11.0,62,0.00,,,0.00,671,Wunderground v.1.15,2013-01-19 17:45:00,
2013-01-19 11:55:00,63.8,48.7,30.21,SSW,192,11.0,17.0,58,0.00,,,0.00,659,Wunderground v.1.15,2013-01-19 17:55:00,
2013-01-19 12:00:00,64.4,48.4,30.20,SSW,196,13.0,13.0,56,0.00,,,0.00,675,Wunderground v.1.15,2013-01-19 18:00:00,
2013-01-19 12:10:00,64.3,48.7,30.20,South,187,12.0,15.0,57,0.00,,,0.00,599,Wunderground v.1.15,2013-01-19 18:10:00,
2013-01-19 12:15:00,64.6,49.0,30.19,SSW,206,11.0,15.0,57,0.00,,,0.00,696,Wunderground v.1.15,2013-01-19 18:15:00,
2013-01-19 12:25:00,65.9,48.8,30.19,SSW,196,10.0,16.0,54,0.00,,,0.00,626,Wunderground v.1.15,2013-01-19 18:25:00,
2013-01-19 12:30:00,65.9,49.3,30.17,South,190,11.0,16.0,55,0.00,,,0.00,594,Wunderground v.1.15,2013-01-19 18:30:00,
2013-01-19 12:35:00,65.7,47.6,30.17,SSW,211,12.0,16.0,52,0.00,,,0.00,575,Wunderground v.1.15,2013-01-19 18:35:00,
2013-01-19 12:40:00,66.3,48.7,30.17,SSW,209,12.0,12.0,53,0.00,,,0.00,791,Wunderground v.1.15,2013-01-19 18:40:00,
2013-01-19 12:45:00,66.5,48.3,30.17,SSW,199,10.0,12.0,52,0.00,,,0.00,798,Wunderground v.1.15,2013-01-19 18:45:00,
2013-01-19 12:50:00,66.7,48.0,30.17,SSW,206,10.0,12.0,51,0.00,,,0.00,745,Wunderground v.1.15,2013-01-19 18:50:00,
2013-01-19 12:55:00,67.0,48.8,30.17,WSW,258,9.0,12.0,52,0.00,,,0.00,724,Wunderground v.1.15,2013-01-19 18:55:00,
2013-01-19 13:00:00,67.4,48.1,30.16,SW,224,10.0,10.0,50,0.00,,,0.00,798,Wunderground v.1.15,2013-01-19 19:00:00,
2013-01-19 13:10:00,66.5,47.8,30.16,SSW,206,10.0,10.0,51,0.00,,,0.00,492,Wunderground v.1.15,2013-01-19 19:10:00,
2013-01-19 13:15:00,65.5,47.9,30.15,SW,219,10.0,10.0,53,0.00,,,0.00,301,Wunderground v.1.15,2013-01-19 19:15:00,
2013-01-19 13:25:00,66.8,48.1,30.15,SSW,211,10.0,11.0,51,0.00,,,0.00,638,Wunderground v.1.15,2013-01-19 19:25:00,
2013-01-19 13:30:00,67.4,48.1,30.14,SW,225,10.0,11.0,50,0.00,,,0.00,710,Wunderground v.1.15,2013-01-19 19:30:00,
2013-01-19 13:40:00,68.2,47.8,30.14,SSW,213,10.0,10.0,48,0.00,,,0.00,700,Wunderground v.1.15,2013-01-19 19:40:00,
2013-01-19 13:45:00,68.0,48.1,30.13,SSW,208,10.0,13.0,49,0.00,,,0.00,705,Wunderground v.1.15,2013-01-19 19:45:00,
2013-01-19 13:50:00,67.5,47.7,30.13,SSW,194,10.0,12.0,49,0.00,,,0.00,765,Wunderground v.1.15,2013-01-19 19:50:00,
2013-01-19 13:55:00,66.5,47.3,30.13,SSW,206,11.0,12.0,50,0.00,,,0.00,413,Wunderground v.1.15,2013-01-19 19:55:00,
2013-01-19 14:10:00,67.0,48.3,30.12,SW,227,8.0,9.0,51,0.00,,,0.00,462,Wunderground v.1.15,2013-01-19 20:10:00,
2013-01-19 14:15:00,67.6,48.8,30.12,SW,222,8.0,9.0,51,0.00,,,0.00,668,Wunderground v.1.15,2013-01-19 20:15:00,
2013-01-19 14:20:00,68.4,48.5,30.12,SW,223,8.0,8.0,49,0.00,,,0.00,431,Wunderground v.1.15,2013-01-19 20:20:00,
2013-01-19 14:30:00,69.0,48.5,30.11,WSW,239,8.0,12.0,48,0.00,,,0.00,591,Wunderground v.1.15,2013-01-19 20:30:00,
2013-01-19 14:35:00,68.7,47.6,30.11,SSW,206,10.0,14.0,47,0.00,,,0.00,585,Wunderground v.1.15,2013-01-19 20:35:00,
2013-01-19 14:40:00,67.8,46.8,30.11,South,175,10.0,10.0,47,0.00,,,0.00,390,Wunderground v.1.15,2013-01-19 20:40:00,
2013-01-19 14:45:00,67.2,47.4,30.11,SSW,200,9.0,10.0,49,0.00,,,0.00,541,Wunderground v.1.15,2013-01-19 20:45:00,
2013-01-19 14:50:00,68.0,47.6,30.11,SSW,206,6.0,6.0,48,0.00,,,0.00,529,Wunderground v.1.15,2013-01-19 20:50:00,
2013-01-19 14:55:00,68.3,46.7,30.11,South,180,9.0,10.0,46,0.00,,,0.00,524,Wunderground v.1.15,2013-01-19 20:55:00,
2013-01-19 15:00:00,68.5,46.9,30.10,SW,219,10.0,10.0,46,0.00,,,0.00,510,Wunderground v.1.15,2013-01-19 21:00:00,
2013-01-19 15:05:00,68.7,46.5,30.10,SSW,211,9.0,10.0,45,0.00,,,0.00,496,Wunderground v.1.15,2013-01-19 21:05:00,
2013-01-19 15:10:00,68.5,45.7,30.10,SW,214,9.0,9.0,44,0.00,,,0.00,483,Wunderground v.1.15,2013-01-19 21:10:00,
2013-01-19 15:15:00,68.3,45.5,30.09,WSW,240,8.0,9.0,44,0.00,,,0.00,471,Wunderground v.1.15,2013-01-19 21:15:00,
2013-01-19 15:25:00,68.5,45.7,30.09,South,180,7.0,7.0,44,0.00,,,0.00,446,Wunderground v.1.15,2013-01-19 21:25:00,
2013-01-19 15:30:00,68.5,45.7,30.09,South,191,7.0,14.0,44,0.00,,,0.00,432,Wunderground v.1.15,2013-01-19 21:30:00,
2013-01-19 15:45:00,68.6,46.4,30.09,South,180,8.0,9.0,45,0.00,,,0.00,396,Wunderground v.1.15,2013-01-19 21:45:00,
2013-01-19 16:00:00,68.6,46.4,30.09,SSW,201,8.0,8.0,45,0.00,,,0.00,352,Wunderground v.1.15,2013-01-19 22:00:00,
2013-01-19 16:05:00,68.5,46.3,30.09,SSW,202,5.0,8.0,45,0.00,,,0.00,343,Wunderground v.1.15,2013-01-19 22:05:00,
2013-01-19 16:10:00,68.8,45.4,30.09,SW,225,6.0,6.0,43,0.00,,,0.00,329,Wunderground v.1.15,2013-01-19 22:10:00,
2013-01-19 16:15:00,68.6,46.4,30.09,SW,219,7.0,7.0,45,0.00,,,0.00,306,Wunderground v.1.15,2013-01-19 22:15:00,
2013-01-19 16:20:00,68.3,46.1,30.09,SW,221,5.0,5.0,45,0.00,,,0.00,301,Wunderground v.1.15,2013-01-19 22:20:00,
2013-01-19 16:25:00,68.6,46.4,30.09,SSW,196,5.0,9.0,45,0.00,,,0.00,283,Wunderground v.1.15,2013-01-19 22:25:00,
2013-01-19 16:30:00,68.4,46.2,30.09,SSW,205,8.0,8.0,45,0.00,,,0.00,274,Wunderground v.1.15,2013-01-19 22:30:00,
2013-01-19 16:35:00,68.4,46.2,30.09,SW,222,7.0,8.0,45,0.00,,,0.00,258,Wunderground v.1.15,2013-01-19 22:35:00,
2013-01-19 16:40:00,68.3,46.1,30.09,SSW,212,4.0,6.0,45,0.00,,,0.00,239,Wunderground v.1.15,2013-01-19 22:40:00,
2013-01-19 16:45:00,68.2,46.0,30.08,SSW,206,4.0,6.0,45,0.00,,,0.00,223,Wunderground v.1.15,2013-01-19 22:45:00,
2013-01-19 16:55:00,67.9,45.2,30.08,SSW,198,5.0,10.0,44,0.00,,,0.00,144,Wunderground v.1.15,2013-01-19 22:55:00,
2013-01-19 17:05:00,67.2,45.1,30.08,South,188,6.0,9.0,45,0.00,,,0.00,72,Wunderground v.1.15,2013-01-19 23:05:00,
2013-01-19 17:10:00,67.3,45.2,30.08,SSW,210,4.0,4.0,45,0.00,,,0.00,118,Wunderground v.1.15,2013-01-19 23:10:00,
2013-01-19 17:15:00,67.3,45.2,30.09,South,191,5.0,7.0,45,0.00,,,0.00,116,Wunderground v.1.15,2013-01-19 23:15:00,
2013-01-19 17:20:00,67.0,44.9,30.09,SSW,205,6.0,7.0,45,0.00,,,0.00,69,Wunderground v.1.15,2013-01-19 23:20:00,
2013-01-19 17:25:00,66.7,45.3,30.09,SSW,200,6.0,7.0,46,0.00,,,0.00,54,Wunderground v.1.15,2013-01-19 23:25:00,
2013-01-19 17:30:00,66.4,45.0,30.08,South,191,6.0,6.0,46,0.00,,,0.00,37,Wunderground v.1.15,2013-01-19 23:30:00,
2013-01-19 17:35:00,65.9,44.5,30.08,South,191,5.0,6.0,46,0.00,,,0.00,26,Wunderground v.1.15,2013-01-19 23:35:00,
2013-01-19 17:45:00,65.2,44.5,30.08,SSW,194,3.0,6.0,47,0.00,,,0.00,16,Wunderground v.1.15,2013-01-19 23:45:00,
2013-01-19 17:50:00,65.0,44.3,30.08,SSW,194,3.0,5.0,47,0.00,,,0.00,12,Wunderground v.1.15,2013-01-19 23:50:00,
2013-01-19 18:00:00,64.8,44.1,30.08,SSW,194,3.0,3.0,47,0.00,,,0.00,5,Wunderground v.1.15,2013-01-20 00:00:00,
2013-01-19 18:05:00,64.5,43.8,30.08,SSW,194,2.0,3.0,47,0.00,,,0.00,0,Wunderground v.1.15,2013-01-20 00:05:00,
2013-01-19 18:10:00,64.2,44.1,30.08,SSW,194,1.0,1.0,48,0.00,,,0.00,0,Wunderground v.1.15,2013-01-20 00:10:00,
2013-01-19 18:15:00,63.9,43.8,30.09,SSW,194,1.0,1.0,48,0.00,,,0.00,0,Wunderground v.1.15,2013-01-20 00:15:00,
2013-01-19 18:30:00,62.7,42.7,30.09,SSW,194,0.0,0.0,48,0.00,,,0.00,0,Wunderground v.1.15,2013-01-20 00:30:00,
2013-01-19 18:35:00,62.1,43.2,30.09,SSW,194,0.0,0.0,50,0.00,,,0.00,0,Wunderground v.1.15,2013-01-20 00:35:00,
2013-01-19 18:40:00,61.5,43.2,30.09,SSW,194,0.0,0.0,51,0.00,,,0.00,0,Wunderground v.1.15,2013-01-20 00:40:00,
2013-01-19 18:45:00,61.1,43.3,30.10,SSW,194,0.0,0.0,52,0.00,,,0.00,0,Wunderground v.1.15,2013-01-20 00:45:00,
2013-01-19 18:55:00,60.0,43.3,30.10,SSW,194,0.0,0.0,54,0.00,,,0.00,0,Wunderground v.1.15,2013-01-20 00:55:00,
2013-01-19 19:05:00,59.0,42.8,30.11,SSW,194,0.0,0.0,55,0.00,,,0.00,0,Wunderground v.1.15,2013-01-20 01:05:00,
2013-01-19 19:10:00,58.9,43.2,30.11,SSW,194,0.0,0.0,56,0.00,,,0.00,0,Wunderground v.1.15,2013-01-20 01:10:00,
2013-01-19 19:15:00,58.4,43.2,30.11,SSW,194,0.0,0.0,57,0.00,,,0.00,0,Wunderground v.1.15,2013-01-20 01:15:00,
2013-01-19 19:20:00,57.8,42.7,30.11,SSW,194,0.0,0.0,57,0.00,,,0.00,0,Wunderground v.1.15,2013-01-20 01:20:00,
2013-01-19 19:25:00,57.2,43.0,30.11,SSW,194,0.0,0.0,59,0.00,,,0.00,0,Wunderground v.1.15,2013-01-20 01:25:00,
2013-01-19 19:30:00,56.7,43.0,30.12,SSW,194,0.0,0.0,60,0.00,,,0.00,0,Wunderground v.1.15,2013-01-20 01:30:00,
2013-01-19 19:35:00,56.3,42.6,30.12,SSW,194,0.0,0.0,60,0.00,,,0.00,0,Wunderground v.1.15,2013-01-20 01:35:00,
2013-01-19 19:40:00,55.8,42.5,30.12,SSW,194,0.0,0.0,61,0.00,,,0.00,0,Wunderground v.1.15,2013-01-20 01:40:00,
2013-01-19 19:45:00,55.3,42.5,30.13,SSW,194,0.0,0.0,62,0.00,,,0.00,0,Wunderground v.1.15,2013-01-20 01:45:00,
2013-01-19 20:00:00,54.2,42.7,30.14,SSW,194,0.0,0.0,65,0.00,,,0.00,0,Wunderground v.1.15,2013-01-20 02:00:00,
2013-01-19 20:05:00,54.0,42.5,30.14,SSW,194,0.0,0.0,65,0.00,,,0.00,0,Wunderground v.1.15,2013-01-20 02:05:00,
2013-01-19 20:10:00,53.7,42.6,30.14,SSW,194,0.0,1.0,66,0.00,,,0.00,0,Wunderground v.1.15,2013-01-20 02:10:00,
2013-01-19 20:15:00,53.4,42.3,30.14,SSW,194,0.0,1.0,66,0.00,,,0.00,0,Wunderground v.1.15,2013-01-20 02:15:00,
2013-01-19 20:20:00,53.3,42.2,30.14,SSW,194,0.0,0.0,66,0.00,,,0.00,0,Wunderground v.1.15,2013-01-20 02:20:00,
2013-01-19 20:25:00,53.1,42.4,30.14,SSW,194,0.0,0.0,67,0.00,,,0.00,0,Wunderground v.1.15,2013-01-20 02:25:00,
2013-01-19 20:35:00,52.6,41.9,30.14,SSW,194,0.0,0.0,67,0.00,,,0.00,0,Wunderground v.1.15,2013-01-20 02:35:00,
2013-01-19 20:40:00,52.4,42.1,30.14,SSW,194,0.0,0.0,68,0.00,,,0.00,0,Wunderground v.1.15,2013-01-20 02:40:00,
2013-01-19 20:50:00,51.9,42.0,30.15,SSW,194,0.0,0.0,69,0.00,,,0.00,0,Wunderground v.1.15,2013-01-20 02:50:00,
2013-01-19 21:00:00,51.4,41.2,30.15,SSW,194,0.0,0.0,68,0.00,,,0.00,0,Wunderground v.1.15,2013-01-20 03:00:00,
2013-01-19 21:05:00,51.2,41.0,30.15,SSW,194,0.0,0.0,68,0.00,,,0.00,0,Wunderground v.1.15,2013-01-20 03:05:00,
2013-01-19 21:15:00,50.7,41.3,30.15,SSW,194,0.0,0.0,70,0.00,,,0.00,0,Wunderground v.1.15,2013-01-20 03:15:00,
2013-01-19 21:25:00,50.2,41.5,30.15,SSW,194,0.0,0.0,72,0.00,,,0.00,0,Wunderground v.1.15,2013-01-20 03:25:00,
2013-01-19 21:30:00,50.0,41.3,30.15,SSW,194,0.0,0.0,72,0.00,,,0.00,0,Wunderground v.1.15,2013-01-20 03:30:00,
2013-01-19 21:35:00,49.8,41.5,30.15,SSW,194,0.0,0.0,73,0.00,,,0.00,0,Wunderground v.1.15,2013-01-20 03:35:00,
2013-01-19 21:40:00,49.6,41.3,30.15,SSW,194,0.0,0.0,73,0.00,,,0.00,0,Wunderground v.1.15,2013-01-20 03:40:00,
2013-01-19 21:45:00,49.4,41.5,30.16,SSW,194,0.0,0.0,74,0.00,,,0.00,0,Wunderground v.1.15,2013-01-20 03:45:00,
2013-01-19 21:55:00,49.0,41.1,30.16,SSW,194,0.0,0.0,74,0.00,,,0.00,0,Wunderground v.1.15,2013-01-20 03:55:00,
2013-01-19 22:00:00,48.8,41.2,30.16,SSW,194,0.0,0.0,75,0.00,,,0.00,0,Wunderground v.1.15,2013-01-20 04:00:00,
2013-01-19 22:05:00,48.6,40.7,30.16,SSW,194,0.0,0.0,74,0.00,,,0.00,0,Wunderground v.1.15,2013-01-20 04:05:00,
2013-01-19 22:15:00,48.1,40.9,30.15,SSW,194,0.0,0.0,76,0.00,,,0.00,0,Wunderground v.1.15,2013-01-20 04:15:00,
2013-01-19 22:25:00,47.6,41.1,30.15,SSW,194,0.0,0.0,78,0.00,,,0.00,0,Wunderground v.1.15,2013-01-20 04:25:00,
2013-01-19 22:30:00,47.5,41.0,30.17,SSW,194,0.0,0.0,78,0.00,,,0.00,0,Wunderground v.1.15,2013-01-20 04:30:00,
2013-01-19 22:40:00,47.3,41.1,30.17,SSW,194,0.0,2.0,79,0.00,,,0.00,0,Wunderground v.1.15,2013-01-20 04:40:00,
2013-01-19 22:50:00,47.2,41.3,30.17,SSW,194,0.0,1.0,80,0.00,,,0.00,0,Wunderground v.1.15,2013-01-20 04:50:00,
2013-01-19 22:55:00,47.2,41.3,30.17,SSW,194,0.0,1.0,80,0.00,,,0.00,0,Wunderground v.1.15,2013-01-20 04:55:00,
2013-01-19 23:00:00,47.1,41.2,30.17,SSW,194,0.0,0.0,80,0.00,,,0.00,0,Wunderground v.1.15,2013-01-20 05:00:00,
2013-01-19 23:05:00,47.2,41.7,30.17,SSW,194,0.0,1.0,81,0.00,,,0.00,0,Wunderground v.1.15,2013-01-20 05:05:00,
2013-01-19 23:15:00,47.2,41.7,30.16,SSW,194,1.0,1.0,81,0.00,,,0.00,0,Wunderground v.1.15,2013-01-20 05:15:00,
2013-01-19 23:20:00,47.2,41.7,30.16,SSW,194,0.0,0.0,81,0.00,,,0.00,0,Wunderground v.1.15,2013-01-20 05:20:00,
2013-01-19 23:25:00,47.2,41.7,30.16,SSW,194,0.0,0.0,81,0.00,,,0.00,0,Wunderground v.1.15,2013-01-20 05:25:00,
2013-01-19 23:35:00,47.0,41.5,30.17,SSW,194,0.0,0.0,81,0.00,,,0.00,0,Wunderground v.1.15,2013-01-20 05:35:00,
2013-01-19 23:40:00,46.9,41.4,30.17,SSW,194,0.0,0.0,81,0.00,,,0.00,0,Wunderground v.1.15,2013-01-20 05:40:00,
2013-01-19 23:45:00,46.8,41.3,30.17,SSW,194,0.0,0.0,81,0.00,,,0.00,0,Wunderground v.1.15,2013-01-20 05:45:00,
2013-01-19 23:50:00,46.6,41.1,30.17,SSW,194,0.0,0.0,81,0.00,,,0.00,0,Wunderground v.1.15,2013-01-20 05:50:00,
2013-01-19 23:55:00,46.5,40.7,30.17,SSW,194,0.0,0.0,80,0.00,,,0.00,0,Wunderground v.1.15,2013-01-20 05:55:00,